Regional Weather Roundup
Issued by NWS

Home | Current Version | Previous Version | Text Only | Print | Product List | Glossary On
Versions: 1 2 3 4 5 6 7 8 9 10 11 12 13 14 15 16 17 18 19 20 21 22 23 24 25 26 27
000
ASUS43 KMPX 100910
RWRMN
WEATHER ROUNDUP FOR MINNESOTA
NATIONAL WEATHER SERVICE TWIN CITIES/CHANHASSEN MN
400 AM CDT MON MAY 10 2021


NOTE: "FAIR" INDICATES FEW OR NO CLOUDS BELOW 12,000 FEET WITH NO
SIGNIFICANT WEATHER AND/OR OBSTRUCTIONS TO VISIBILITY. N/A MEANS
CURRENT SKY AND/OR WEATHER CONDITIONS ARE NOT AVAILABLE.

MNZ060>063-068>070-101000-
   Twin Cities Metro

CITY           SKY/WX    TMP DP  RH WIND       PRES   REMARKS
TWIN CITIES    MOCLDY    42  26  53 NE8       30.14R
ST PAUL        MOCLDY    43  27  53 NE7       30.15R
CRYSTAL        MOCLDY    40  27  59 NE5       30.14R
BLAINE         MOCLDY    43  28  56 NE6       30.15R
LAKEVILLE      MOCLDY    41  25  52 NE7       30.12S
EDEN PRAIRIE   MOCLDY    43  27  53 NE8       30.12R
SOUTH ST PAUL  PTCLDY    43  26  52 N5        30.14R
$$
MNZ001>005-007-008-013>017-022>024-027-028-101000-
   Northwest Minnesota

CITY           SKY/WX    TMP DP  RH WIND       PRES   REMARKS
BEMIDJI        CLOUDY    34  25  68 CALM      30.21S
HALLOCK        CLOUDY    37  25  60 NE3       30.27R
ROSEAU           N/A     41 N/A N/A N6        30.26S
WARROAD        MOCLDY    41  28  60 NE9       30.26S
THIEF RVR FALL CLOUDY    37  23  56 NE7       30.25S
CROOKSTON      MOCLDY    32  21  64 E6        30.25S WCI  26
FOSSTON        CLOUDY    34  21  60 NE5       30.23R WCI  30
DETROIT LAKES  CLOUDY    37  25  60 NE5       30.19S
MOORHEAD       CLEAR     30  18  59 CALM      30.22R
PARK RAPIDS    MOCLDY    39  24  55 NE5       30.18S
MAHNOMEN       CLOUDY    30  22  72 NE7       30.21S WCI  23
$$
MNZ006-009>011-018-025>026-101000-
   North Central Minnesota

CITY           SKY/WX    TMP DP  RH WIND       PRES   REMARKS
BAUDETTE       CLOUDY    37  26  64 NE8       30.25R
FLAG ISLAND    PTCLDY    39  25  56 NE12      30.26S
INTL FALLS     PTCLDY    37  25  61 NE6       30.23R
WASKISH        CLOUDY    36  25  64 CALM      30.23S
BIG FORK       CLEAR     27  21  80 CALM      30.26R
LONGVILLE      CLOUDY    37  25  60 CALM      30.19S
GRAND RAPIDS   CLOUDY    36  23  59 CALM      30.21S
CRANE LAKE     PTCLDY    28  25  86 CALM      30.24S
ORR            CLOUDY    36  25  64 CALM      30.19R
COOK           PTCLDY    28  25  86 CALM      30.20R
WALKER         CLOUDY    38  26  60 NE5       30.20S
$$
MNZ012-019>021-037-101000-
   Northeast Minnesota

CITY           SKY/WX    TMP DP  RH WIND       PRES   REMARKS
DULUTH         CLOUDY    34  26  72 N6        30.17R WCI  29
ELY            CLOUDY    36  25  64 CALM      30.19R
HIBBING        CLEAR     29  22  75 N3        30.19R
EVELETH        CLOUDY    33  26  75 NE3       30.20R
DULUTH HARBOR  CLOUDY    39  28  65 N3        30.20R
TWO HARBORS    MOCLDY    36  25  64 N5        30.17R
SILVER BAY     CLOUDY    36  25  64 N3        30.17S
GRAND MARAIS     N/A     38  25  59 N12G18    30.17S
G MARAIS ARPRT CLEAR     30  23  74 N6        30.15R WCI  24
$$
MNZ029>031-032-039>041-046>048-054>057-064-101000-
   West Central Minnesota

CITY           SKY/WX    TMP DP  RH WIND       PRES   REMARKS
FERGUS FALLS   CLOUDY    39  27  60 NE5       30.15S
WHEATON        PTCLDY    39  25  56 N5        30.20R
MORRIS         MOCLDY    43  23  45 NE10      30.17R
ALEXANDRIA     CLOUDY    40  29  64 NE9       30.17R
ELBOW LAKE     FAIR      40  30  67 E7        30.18R
WADENA         CLEAR     36  27  69 NE3       30.18S
GLENWOOD       MOCLDY    39  28  65 E10       30.16R
APPLETON       MOCLDY    45  27  49 E8        30.14R
BENSON         CLOUDY    43  28  56 E9        30.15R
ORTONVILLE     MOCLDY    43  28  56 N9        30.15R
MADISON        PTCLDY    45  28  53 E9        30.14S
WILLMAR        FAIR      43  28  56 NE13G18   30.16S
$$
MNZ033>034-036-042>043-049>051-058-059-101000-
   Central Minnesota

CITY           SKY/WX    TMP DP  RH WIND       PRES   REMARKS
ST CLOUD       CLOUDY    41  28  60 VRB6      30.17R
SAUK CENTRE    CLOUDY    40  28  62 E8        30.17R
PAYNESVILLE    CLOUDY    41  32  70 NE6       30.17R
AITKIN         PTCLDY    28  27  93 CALM      30.19S
PINE RIVER     MOCLDY    37  28  70 CALM      30.22S
BRAINERD       MOCLDY    35  28  75 N3        30.19R
STAPLES        CLEAR     37  28  70 CALM      30.18S
LONG PRAIRIE   CLOUDY    37  28  70 NE3       30.18R
LITTLE FALLS   CLOUDY    37  25  60 CALM      30.18R
CAMP RIPLEY    CLOUDY    39  29  68 N7        30.18S
LITCHFIELD     MOCLDY    43  32  65 NE6       30.15R
BUFFALO        MOCLDY    41  27  55 MISG      30.16R
MAPLE LAKE     CLOUDY    41  30  64 NE6       30.17R
HUTCHINSON     PTCLDY    41  30  64 NE9       30.14S
$$
MNZ037-044-045-052-053-101000-
   East Central Minnesota

CITY           SKY/WX    TMP DP  RH WIND       PRES   REMARKS
PRINCETON      CLOUDY    43  28  56 NE3       30.17R
MORA           MOCLDY    36  28  75 CALM      30.19S
CAMBRIDGE      CLOUDY    43  27  52 N7        30.17R
RUSH CITY      CLOUDY    39  27  62 NE6       30.18R
MOOSE LAKE     PTCLDY    28  27  93 CALM      30.17S
CLOQUET        CLOUDY    28  25  86 NW3       30.16S
$$
MNZ071>073-080-081-089-090-097-098-101000-
   Southwest Minnesota

CITY           SKY/WX    TMP DP  RH WIND       PRES   REMARKS
MONTEVIDEO     MOCLDY    43  25  49 E9        30.14R
GRANITE FALLS  MOCLDY    45  29  53 NE9       30.13R
CANBY          MOCLDY    43  28  55 N6        30.14R
MARSHALL       CLOUDY    46  26  45 E10       30.11R
REDWOOD FALLS  CLOUDY    45  27  49 E9        30.11R
OLIVIA         MOCLDY    43  28  56 NE7       30.11S
PIPESTONE        N/A     45  30  57 NW7       30.10S
WINDOM         MOCLDY    45  34  65 S3        30.09R
WORTHINGTON    CLOUDY    47  32  56 W9        30.10S
JACKSON        MOCLDY    43  32  65 N7        30.10R
TRACY          CLOUDY    46  25  44 N7        30.09S
SLAYTON        CLOUDY    45  27  50 NW6       30.11R
$$
MNZ065>067-074>077-082>085-091>093-101000-
   South Central Minnesota

CITY           SKY/WX    TMP DP  RH WIND       PRES   REMARKS
MANKATO        MOCLDY    46  29  51 NE6       30.11R
NEW ULM        MOCLDY    46  27  46 NE5       30.11S
ST JAMES       CLOUDY    46  27  46 NE6       30.10S
FAIRMONT       MOCLDY    46  26  45 NW3       30.10R
GLENCOE        CLOUDY    42  28  58 N5        30.13R
FARIBAULT      CLOUDY    43  28  56 N7        30.11R
OWATONNA       MOCLDY    43  27  52 NE6       30.09S
WASECA         CLOUDY    43  27  52 NE12      30.11R
ALBERT LEA     CLOUDY    45  27  49 E8        30.08R
$$
MNZ078>079-086>088-094>096-101000-
   Southeast Minnesota

CITY           SKY/WX    TMP DP  RH WIND       PRES   REMARKS
ROCHESTER      PTCLDY    40  25  55 NE6       30.08S
RED WING       PTCLDY    41  25  52 E5        30.11R
STANTON        CLOUDY    41  29  62 NE7       30.11R
DODGE CENTER   PTCLDY    41  25  52 NE6       30.08S
WINONA         PTCLDY    43  30  61 E6        30.11R
AUSTIN         MOCLDY    45  27  49 E7        30.08R
PRESTON        MOCLDY    41  28  59 NE7       30.08S
$$
ABBREVIATIONS USED IN REMARKS
   TC - TEMPERATURES IN CELSIUS
  WCI - WIND CHILL INDEX
   HX - HEAT INDEX
  VSB - VISIBILITY
$$



USA.gov is the U.S. government's official web portal to all federal, state and local government web resources and services.